When you browse on this site, cookies collect data to enhance your experience and personalize the content and advertising you see.
Visit our Privacy Policy to learn more. By continuing to use the site, you agree to this use of cookies and data.
  • In Latvia
  • List of Countries
  • For 7 days
  • Water Temperature
  • Satellite Maps
  • Weather Map
  • Weather Widgets
  • user-avatar
    Login

    Hourly Weather Lemnos

    Today, 13 December, Thursday

    Time Temperature Precipitation Wind Pressure Humidity
    00:00 +8°C° 0 mm 2 mps 763 mmHg 46%
    01:00 +8°C° 0 mm 2 mps 763 mmHg 47%
    02:00 +8°C° 0 mm 2 mps 763 mmHg 48%
    03:00 +8°C° 0 mm 2 mps 763 mmHg 48%
    04:00 +8°C° 0 mm 3 mps 763 mmHg 49%
    05:00 +8°C° 0 mm 3 mps 763 mmHg 49%
    06:00 +8°C° 0 mm 3 mps 763 mmHg 50%
    07:00 +8°C° 0 mm 2 mps 763 mmHg 50%
    08:00 +9°C° 0 mm 2 mps 763 mmHg 51%
    09:00 +9°C° 0 mm 3 mps 763 mmHg 51%
    10:00 +10°C° 0 mm 3 mps 762 mmHg 50%
    11:00 +11°C° 0 mm 3 mps 762 mmHg 50%
    12:00 +10°C° 0.2 mm 4 mps 762 mmHg 58%
    13:00 +9°C° 0.2 mm 5 mps 762 mmHg 66%
    14:00 +9°C° 0.2 mm 5 mps 762 mmHg 74%
    15:00 +8°C° 0.7 mm 6 mps 761 mmHg 77%
    16:00 +8°C° 0.7 mm 6 mps 761 mmHg 81%
    17:00 +8°C° 0.7 mm 7 mps 761 mmHg 84%
    18:00 +8°C° 0.4 mm 7 mps 761 mmHg 85%
    19:00 +9°C° 0.4 mm 7 mps 761 mmHg 86%
    20:00 +9°C° 0.4 mm 8 mps 761 mmHg 87%
    21:00 +9°C° 0.1 mm 7 mps 761 mmHg 85%
    22:00 +9°C° 0.1 mm 7 mps 761 mmHg 83%
    23:00 +9°C° 0.1 mm 6 mps 761 mmHg 81%

    Tomorrow, 14 December, Friday

    Time Temperature Precipitation Wind Pressure Humidity
    00:00 +9°C° 0 mm 6 mps 761 mmHg 81%
    01:00 +10°C° 0 mm 5 mps 761 mmHg 81%
    02:00 +10°C° 0 mm 5 mps 761 mmHg 81%
    03:00 +10°C° 0 mm 5 mps 761 mmHg 82%
    04:00 +10°C° 0 mm 5 mps 761 mmHg 82%
    05:00 +12°C° 0 mm 5 mps 761 mmHg 83%
    06:00 +12°C° 0 mm 5 mps 761 mmHg 83%
    07:00 +12°C° 0 mm 5 mps 761 mmHg 83%
    08:00 +13°C° 0 mm 6 mps 761 mmHg 83%
    09:00 +13°C° 0 mm 6 mps 761 mmHg 81%
    10:00 +13°C° 0 mm 6 mps 761 mmHg 79%
    11:00 +14°C° 0 mm 6 mps 761 mmHg 78%
    12:00 +14°C° 0.1 mm 5 mps 761 mmHg 76%
    13:00 +14°C° 0.1 mm 5 mps 761 mmHg 74%
    14:00 +14°C° 0.1 mm 5 mps 761 mmHg 72%
    15:00 +14°C° 0.1 mm 5 mps 761 mmHg 74%
    16:00 +13°C° 0.1 mm 5 mps 760 mmHg 75%
    17:00 +13°C° 0.1 mm 5 mps 760 mmHg 77%
    18:00 +13°C° 0.1 mm 5 mps 760 mmHg 78%
    19:00 +13°C° 0.1 mm 5 mps 761 mmHg 80%
    20:00 +13°C° 0.1 mm 5 mps 761 mmHg 81%
    21:00 +13°C° 0.2 mm 5 mps 761 mmHg 82%
    22:00 +13°C° 0.2 mm 5 mps 761 mmHg 83%
    23:00 +13°C° 0.2 mm 5 mps 761 mmHg 84%

    Day after tomorrow, 15 December, Saturday

    Time Temperature Precipitation Wind Pressure Humidity
    00:00 +13°C° 0.2 mm 5 mps 760 mmHg 85%
    01:00 +13°C° 0.2 mm 5 mps 760 mmHg 86%
    02:00 +13°C° 0.2 mm 5 mps 760 mmHg 87%
    03:00 +12°C° 0.3 mm 5 mps 760 mmHg 88%
    04:00 +12°C° 0.3 mm 5 mps 759 mmHg 89%
    05:00 +12°C° 0.3 mm 5 mps 759 mmHg 89%
    06:00 +13°C° 0.3 mm 6 mps 759 mmHg 90%
    07:00 +13°C° 0.3 mm 6 mps 759 mmHg 90%
    08:00 +12°C° 0.3 mm 7 mps 759 mmHg 91%
    09:00 +12°C° 0.2 mm 7 mps 760 mmHg 89%
    10:00 +14°C° 0.2 mm 7 mps 760 mmHg 86%
    11:00 +13°C° 0.2 mm 8 mps 760 mmHg 84%
    12:00 +13°C° 0.1 mm 8 mps 759 mmHg 83%
    13:00 +15°C° 0.1 mm 7 mps 759 mmHg 81%
    14:00 +15°C° 0.1 mm 7 mps 758 mmHg 80%
    15:00 +15°C° 0.1 mm 7 mps 758 mmHg 80%
    16:00 +14°C° 0.1 mm 7 mps 758 mmHg 81%
    17:00 +14°C° 0.1 mm 7 mps 758 mmHg 82%
    18:00 +14°C° 0.1 mm 7 mps 758 mmHg 83%
    19:00 +14°C° 0.1 mm 7 mps 758 mmHg 84%
    20:00 +13°C° 0.1 mm 8 mps 758 mmHg 85%
    21:00 +15°C° 0.1 mm 8 mps 758 mmHg 85%
    22:00 +15°C° 0.1 mm 8 mps 758 mmHg 84%
    23:00 +15°C° 0.1 mm 8 mps 757 mmHg 83%

    16 December, Sunday

    Time Temperature Precipitation Wind Pressure Humidity
    00:00 +15°C° 0.1 mm 8 mps 757 mmHg 84%
    01:00 +15°C° 0.1 mm 7 mps 757 mmHg 84%
    02:00 +15°C° 0.1 mm 7 mps 757 mmHg 84%
    03:00 +14°C° 0.5 mm 7 mps 756 mmHg 85%
    04:00 +14°C° 0.5 mm 6 mps 756 mmHg 85%
    05:00 +14°C° 0.5 mm 6 mps 756 mmHg 86%
    06:00 +14°C° 0.3 mm 6 mps 756 mmHg 86%
    07:00 +14°C° 0.3 mm 5 mps 756 mmHg 85%
    08:00 +13°C° 0.3 mm 5 mps 756 mmHg 85%
    09:00 +14°C° 0.2 mm 5 mps 756 mmHg 83%
    10:00 +14°C° 0.2 mm 4 mps 756 mmHg 80%
    11:00 +15°C° 0.2 mm 4 mps 756 mmHg 78%
    12:00 +15°C° 0.1 mm 4 mps 756 mmHg 77%
    13:00 +15°C° 0.1 mm 4 mps 756 mmHg 76%
    14:00 +15°C° 0.1 mm 4 mps 755 mmHg 75%
    15:00 +14°C° 0.2 mm 4 mps 755 mmHg 76%
    16:00 +14°C° 0.2 mm 3 mps 755 mmHg 78%
    17:00 +14°C° 0.2 mm 3 mps 756 mmHg 79%
    18:00 +13°C° 0.5 mm 4 mps 756 mmHg 74%
    19:00 +13°C° 0.5 mm 5 mps 756 mmHg 70%
    20:00 +13°C° 0.5 mm 5 mps 757 mmHg 66%
    21:00 +11°C° 0.3 mm 6 mps 757 mmHg 62%
    22:00 +11°C° 0.3 mm 7 mps 758 mmHg 58%
    23:00 +10°C° 0.3 mm 7 mps 758 mmHg 55%

    17 December, Monday

    Time Temperature Precipitation Wind Pressure Humidity
    00:00 +10°C° 0.1 mm 7 mps 758 mmHg 54%
    01:00 +9°C° 0.1 mm 7 mps 758 mmHg 53%
    02:00 +9°C° 0.1 mm 6 mps 758 mmHg 52%
    03:00 +8°C° 0 mm 6 mps 758 mmHg 54%
    04:00 +8°C° 0 mm 5 mps 759 mmHg 56%
    05:00 +8°C° 0 mm 5 mps 759 mmHg 58%
    06:00 +8°C° 0 mm 4 mps 759 mmHg 58%
    07:00 +8°C° 0 mm 4 mps 759 mmHg 58%
    08:00 +8°C° 0 mm 4 mps 760 mmHg 59%
    09:00 +9°C° 0 mm 3 mps 760 mmHg 57%
    10:00 +10°C° 0 mm 3 mps 760 mmHg 55%
    11:00 +10°C° 0 mm 3 mps 760 mmHg 53%
    12:00 +11°C° 0 mm 3 mps 760 mmHg 50%
    13:00 +12°C° 0 mm 2 mps 760 mmHg 48%
    14:00 +12°C° 0 mm 2 mps 760 mmHg 45%
    15:00 +12°C° 0 mm 2 mps 760 mmHg 46%
    16:00 +12°C° 0 mm 1 mps 760 mmHg 47%
    17:00 +11°C° 0 mm 1 mps 760 mmHg 48%
    18:00 +11°C° 0 mm 1 mps 761 mmHg 49%
    19:00 +11°C° 0 mm 1 mps 761 mmHg 51%
    20:00 +11°C° 0 mm 1 mps 761 mmHg 52%
    21:00 +11°C° 0 mm 1 mps 762 mmHg 54%
    22:00 +11°C° 0 mm 1 mps 762 mmHg 55%
    23:00 +10°C° 0 mm 2 mps 762 mmHg 57%

    18 December, Tuesday

    Time Temperature Precipitation Wind Pressure Humidity
    00:00 +10°C° 0 mm 2 mps 762 mmHg 58%
    01:00 +10°C° 0 mm 2 mps 762 mmHg 59%
    02:00 +10°C° 0 mm 2 mps 762 mmHg 60%
    03:00 +10°C° 0 mm 3 mps 762 mmHg 62%
    04:00 +11°C° 0 mm 3 mps 762 mmHg 63%
    05:00 +11°C° 0 mm 3 mps 762 mmHg 64%
    06:00 +11°C° 0 mm 4 mps 762 mmHg 68%
    07:00 +11°C° 0 mm 4 mps 762 mmHg 72%
    08:00 +10°C° 0 mm 5 mps 762 mmHg 75%
    09:00 +10°C° 0.3 mm 5 mps 762 mmHg 78%
    10:00 +10°C° 0.3 mm 6 mps 762 mmHg 80%
    11:00 +9°C° 0.3 mm 6 mps 762 mmHg 83%
    12:00 +9°C° 1.3 mm 6 mps 761 mmHg 83%
    13:00 +9°C° 1.3 mm 7 mps 761 mmHg 83%
    14:00 +8°C° 1.3 mm 7 mps 760 mmHg 83%
    15:00 +7°C° 0.9 mm 8 mps 760 mmHg 83%
    16:00 +7°C° 0.9 mm 9 mps 760 mmHg 82%
    17:00 +7°C° 0.9 mm 9 mps 760 mmHg 81%
    18:00 +7°C° 0.9 mm 9 mps 760 mmHg 81%
    19:00 +7°C° 0.9 mm 10 mps 760 mmHg 81%
    20:00 +7°C° 0.9 mm 10 mps 760 mmHg 81%
    21:00 +7°C° 1 mm 10 mps 760 mmHg 79%
    22:00 +7°C° 1 mm 11 mps 760 mmHg 77%
    23:00 +7°C° 1 mm 11 mps 760 mmHg 76%
    Show more